When you browse on this site, cookies collect data to enhance your experience and personalize the content and advertising you see.
Visit our Privacy Policy to learn more. By continuing to use the site, you agree to this use of cookies and data.
EN

Hourly Weather Godziszewy

Today, 19 September, Saturday

Time Temperature Precipitation Wind Pressure Humidity
00:00 +10°C° 0 mm 1 mps 758 mmHg 58%
01:00 +10°C° 0 mm 1 mps 758 mmHg 61%
02:00 +10°C° 0 mm 1 mps 758 mmHg 63%
03:00 +9°C° 0 mm 1 mps 758 mmHg 65%
04:00 +9°C° 0 mm 1 mps 757 mmHg 68%
05:00 +9°C° 0 mm 1 mps 757 mmHg 66%
06:00 +10°C° 0 mm 1 mps 758 mmHg 64%
07:00 +11°C° 0 mm 1 mps 758 mmHg 62%
08:00 +13°C° 0 mm 1 mps 758 mmHg 56%
09:00 +14°C° 0 mm 1 mps 758 mmHg 50%
10:00 +16°C° 0 mm 2 mps 758 mmHg 44%
11:00 +17°C° 0 mm 2 mps 757 mmHg 40%
12:00 +18°C° 0 mm 2 mps 757 mmHg 36%
13:00 +19°C° 0 mm 2 mps 757 mmHg 32%
14:00 +20°C° 0 mm 1 mps 756 mmHg 34%
15:00 +20°C° 0 mm 1 mps 756 mmHg 36%
16:00 +19°C° 0 mm 1 mps 756 mmHg 38%
17:00 +18°C° 0 mm 1 mps 756 mmHg 41%
18:00 +15°C° 0 mm 1 mps 755 mmHg 44%
19:00 +14°C° 0 mm 1 mps 755 mmHg 46%
20:00 +13°C° 0 mm 1 mps 756 mmHg 51%
21:00 +13°C° 0 mm 1 mps 756 mmHg 55%
22:00 +13°C° 0 mm 1 mps 756 mmHg 59%
23:00 +12°C° 0 mm 1 mps 756 mmHg 63%

Tomorrow, 20 September, Sunday

Time Temperature Precipitation Wind Pressure Humidity
00:00 +12°C° 0 mm 1 mps 756 mmHg 67%
01:00 +12°C° 0 mm 1 mps 756 mmHg 72%
02:00 +11°C° 0 mm 1 mps 756 mmHg 75%
03:00 +11°C° 0 mm 1 mps 755 mmHg 79%
04:00 +10°C° 0 mm 2 mps 755 mmHg 82%
05:00 +10°C° 0 mm 2 mps 755 mmHg 81%
06:00 +12°C° 0 mm 2 mps 755 mmHg 79%
07:00 +12°C° 0 mm 2 mps 755 mmHg 78%
08:00 +14°C° 0 mm 2 mps 755 mmHg 68%
09:00 +15°C° 0 mm 2 mps 755 mmHg 58%
10:00 +17°C° 0 mm 2 mps 755 mmHg 48%
11:00 +18°C° 0 mm 3 mps 755 mmHg 45%
12:00 +19°C° 0 mm 3 mps 755 mmHg 42%
13:00 +20°C° 0 mm 3 mps 755 mmHg 39%
14:00 +20°C° 0 mm 3 mps 754 mmHg 41%
15:00 +20°C° 0 mm 2 mps 754 mmHg 42%
16:00 +19°C° 0 mm 2 mps 753 mmHg 44%
17:00 +18°C° 0 mm 2 mps 753 mmHg 48%
18:00 +16°C° 0 mm 2 mps 753 mmHg 52%
19:00 +14°C° 0 mm 2 mps 753 mmHg 57%
20:00 +13°C° 0 mm 2 mps 753 mmHg 58%
21:00 +13°C° 0 mm 2 mps 754 mmHg 59%
22:00 +12°C° 0 mm 2 mps 754 mmHg 61%
23:00 +12°C° 0 mm 2 mps 753 mmHg 61%

Day after tomorrow, 21 September, Monday

Time Temperature Precipitation Wind Pressure Humidity
00:00 +10°C° 0 mm 2 mps 753 mmHg 62%
01:00 +11°C° 0 mm 1 mps 753 mmHg 62%
02:00 +10°C° 0 mm 1 mps 753 mmHg 64%
03:00 +10°C° 0 mm 1 mps 753 mmHg 66%
04:00 +10°C° 0 mm 1 mps 753 mmHg 68%
05:00 +10°C° 0 mm 1 mps 753 mmHg 67%
06:00 +10°C° 0 mm 2 mps 753 mmHg 67%
07:00 +12°C° 0 mm 2 mps 753 mmHg 66%
08:00 +14°C° 0 mm 2 mps 753 mmHg 61%
09:00 +16°C° 0 mm 2 mps 753 mmHg 55%
10:00 +18°C° 0 mm 2 mps 753 mmHg 50%
11:00 +19°C° 0 mm 2 mps 753 mmHg 47%
12:00 +21°C° 0 mm 2 mps 753 mmHg 45%
13:00 +23°C° 0 mm 1 mps 752 mmHg 42%
14:00 +23°C° 0 mm 1 mps 752 mmHg 43%
15:00 +23°C° 0 mm 1 mps 752 mmHg 44%
16:00 +23°C° 0 mm 1 mps 751 mmHg 45%
17:00 +21°C° 0 mm 1 mps 751 mmHg 51%
18:00 +19°C° 0 mm 1 mps 751 mmHg 56%
19:00 +16°C° 0 mm 2 mps 751 mmHg 62%
20:00 +16°C° 0 mm 2 mps 751 mmHg 64%
21:00 +15°C° 0 mm 2 mps 751 mmHg 66%
22:00 +15°C° 0 mm 2 mps 751 mmHg 69%
23:00 +14°C° 0 mm 2 mps 751 mmHg 70%

22 September, Tuesday

Time Temperature Precipitation Wind Pressure Humidity
00:00 +14°C° 0 mm 2 mps 751 mmHg 71%
01:00 +14°C° 0 mm 2 mps 750 mmHg 73%
02:00 +14°C° 0 mm 2 mps 750 mmHg 73%
03:00 +13°C° 0 mm 2 mps 750 mmHg 73%
04:00 +12°C° 0 mm 3 mps 749 mmHg 74%
05:00 +13°C° 0 mm 3 mps 749 mmHg 72%
06:00 +13°C° 0 mm 3 mps 749 mmHg 70%
07:00 +14°C° 0 mm 3 mps 749 mmHg 68%
08:00 +18°C° 0 mm 3 mps 749 mmHg 61%
09:00 +20°C° 0 mm 4 mps 749 mmHg 55%
10:00 +22°C° 0 mm 4 mps 749 mmHg 48%
11:00 +25°C° 0 mm 5 mps 748 mmHg 44%
12:00 +26°C° 0 mm 6 mps 747 mmHg 39%
13:00 +27°C° 0 mm 6 mps 747 mmHg 35%
14:00 +27°C° 0 mm 6 mps 746 mmHg 37%
15:00 +26°C° 0 mm 5 mps 746 mmHg 40%
16:00 +26°C° 0 mm 4 mps 745 mmHg 43%
17:00 +23°C° 0 mm 4 mps 745 mmHg 46%
18:00 +22°C° 0 mm 4 mps 745 mmHg 50%
19:00 +20°C° 0 mm 4 mps 745 mmHg 54%
20:00 +19°C° 0 mm 4 mps 745 mmHg 56%
21:00 +19°C° 0 mm 4 mps 745 mmHg 58%
22:00 +18°C° 0 mm 4 mps 744 mmHg 60%
23:00 +18°C° 0 mm 4 mps 744 mmHg 61%

23 September, Wednesday

Time Temperature Precipitation Wind Pressure Humidity
00:00 +17°C° 0 mm 3 mps 744 mmHg 62%
01:00 +17°C° 0 mm 3 mps 744 mmHg 63%
02:00 +17°C° 0 mm 3 mps 743 mmHg 63%
03:00 +16°C° 0 mm 3 mps 743 mmHg 64%
04:00 +16°C° 0 mm 3 mps 743 mmHg 64%
05:00 +16°C° 0 mm 3 mps 743 mmHg 63%
06:00 +17°C° 0 mm 4 mps 743 mmHg 61%
07:00 +17°C° 0 mm 4 mps 743 mmHg 60%
08:00 +19°C° 0 mm 4 mps 742 mmHg 56%
09:00 +20°C° 0 mm 4 mps 742 mmHg 52%
10:00 +22°C° 0 mm 4 mps 742 mmHg 48%
11:00 +23°C° 0 mm 4 mps 742 mmHg 48%
12:00 +25°C° 0 mm 5 mps 742 mmHg 48%
13:00 +26°C° 0 mm 5 mps 742 mmHg 47%
14:00 +25°C° 0 mm 4 mps 741 mmHg 50%
15:00 +25°C° 0 mm 4 mps 741 mmHg 53%
16:00 +25°C° 0 mm 3 mps 741 mmHg 56%
17:00 +24°C° 0.1 mm 3 mps 741 mmHg 61%
18:00 +21°C° 0.1 mm 3 mps 741 mmHg 66%
19:00 +20°C° 0.1 mm 4 mps 741 mmHg 71%
20:00 +20°C° 0.1 mm 4 mps 741 mmHg 73%
21:00 +19°C° 0.1 mm 3 mps 741 mmHg 75%
22:00 +18°C° 0.1 mm 3 mps 742 mmHg 77%
23:00 +18°C° 0 mm 3 mps 742 mmHg 79%

24 September, Thursday

Time Temperature Precipitation Wind Pressure Humidity
00:00 +17°C° 0 mm 3 mps 742 mmHg 81%
01:00 +17°C° 0 mm 3 mps 742 mmHg 84%
02:00 +16°C° 0 mm 3 mps 743 mmHg 85%
03:00 +16°C° 0 mm 2 mps 743 mmHg 87%
04:00 +16°C° 0 mm 2 mps 743 mmHg 88%
05:00 +16°C° 0 mm 2 mps 743 mmHg 86%
06:00 +16°C° 0 mm 2 mps 743 mmHg 84%
07:00 +17°C° 0 mm 2 mps 743 mmHg 82%
08:00 +19°C° 0 mm 2 mps 743 mmHg 74%
09:00 +21°C° 0 mm 3 mps 743 mmHg 65%
10:00 +24°C° 0 mm 3 mps 743 mmHg 57%
11:00 +25°C° 0 mm 4 mps 743 mmHg 54%
12:00 +25°C° 0 mm 4 mps 743 mmHg 51%
13:00 +26°C° 0 mm 4 mps 742 mmHg 48%
14:00 +26°C° 0 mm 4 mps 742 mmHg 49%
15:00 +26°C° 0 mm 4 mps 741 mmHg 50%
16:00 +26°C° 0 mm 4 mps 741 mmHg 51%
17:00 +23°C° 0 mm 4 mps 741 mmHg 55%
18:00 +22°C° 0 mm 4 mps 740 mmHg 59%
19:00 +21°C° 0 mm 5 mps 740 mmHg 63%
20:00 +21°C° 0 mm 5 mps 739 mmHg 64%
21:00 +21°C° 0 mm 6 mps 739 mmHg 64%
22:00 +21°C° 0 mm 6 mps 739 mmHg 65%
23:00 +21°C° 0 mm 7 mps 738 mmHg 64%
Show more